Time,TemperatureF,DewpointF,PressureIn,WindDirection,WindDirectionDegrees,WindSpeedMPH,WindSpeedGustMPH,Humidity,HourlyPrecipIn,Conditions,Clouds,dailyrainin,SolarRadiationWatts/m^2,SoftwareType,DateUTC
2013-04-16 00:01:00,46.2,38.4,30.04,NW,308,0.0,0.0,74,0.00,,,0.00,0.0,custom,2013-04-16 07:01:00,
2013-04-16 00:06:00,46.3,38.1,30.05,NW,304,0.0,0.0,73,0.00,,,0.00,0.0,custom,2013-04-16 07:06:00,
2013-04-16 00:11:00,46.4,38.2,30.05,NW,304,0.0,0.0,73,0.00,,,0.00,0.0,custom,2013-04-16 07:11:00,
2013-04-16 00:16:00,46.4,38.2,30.04,NW,305,0.0,0.0,73,0.00,,,0.00,0.0,custom,2013-04-16 07:16:00,
2013-04-16 00:21:00,46.3,38.1,30.05,NW,304,0.0,0.0,73,0.00,,,0.00,0.0,custom,2013-04-16 07:21:00,
2013-04-16 00:31:00,46.1,37.9,30.05,NW,304,0.0,0.0,73,0.00,,,0.00,0.0,custom,2013-04-16 07:31:00,
2013-04-16 00:36:00,46.0,37.8,30.05,NW,305,0.0,0.0,73,0.00,,,0.00,0.0,custom,2013-04-16 07:36:00,
2013-04-16 00:41:00,45.8,38.0,30.05,WNW,303,0.0,0.0,74,0.00,,,0.00,0.0,custom,2013-04-16 07:41:00,
2013-04-16 00:46:00,45.6,37.8,30.05,NW,304,0.0,0.0,74,0.00,,,0.00,0.0,custom,2013-04-16 07:46:00,
2013-04-16 00:51:00,45.4,37.6,30.05,NW,304,0.0,0.0,74,0.00,,,0.00,0.0,custom,2013-04-16 07:51:00,
2013-04-16 00:56:00,45.2,37.4,30.05,NW,304,0.0,0.0,74,0.00,,,0.00,0.0,custom,2013-04-16 07:56:00,
2013-04-16 01:01:00,45.2,37.4,30.05,NW,304,0.0,0.0,74,0.00,,,0.00,0.0,custom,2013-04-16 08:01:00,
2013-04-16 01:06:00,44.8,37.4,30.06,NW,304,0.0,0.0,75,0.00,,,0.00,0.0,custom,2013-04-16 08:06:00,
2013-04-16 01:11:00,44.6,37.5,30.06,NW,304,0.0,0.0,76,0.00,,,0.00,0.0,custom,2013-04-16 08:11:00,
2013-04-16 01:16:00,44.3,37.2,30.06,NW,304,0.0,0.0,76,0.00,,,0.00,0.0,custom,2013-04-16 08:16:00,
2013-04-16 01:21:00,44.2,37.1,30.06,NW,304,0.0,0.0,76,0.00,,,0.00,0.0,custom,2013-04-16 08:21:00,
2013-04-16 01:26:00,44.0,37.3,30.06,NW,304,0.0,0.0,77,0.00,,,0.00,0.0,custom,2013-04-16 08:26:00,
2013-04-16 01:31:00,43.9,37.2,30.06,NW,304,0.0,0.0,77,0.00,,,0.00,0.0,custom,2013-04-16 08:31:00,
2013-04-16 01:36:00,43.7,37.0,30.06,NW,304,0.0,0.0,77,0.00,,,0.00,0.0,custom,2013-04-16 08:36:00,
2013-04-16 01:41:00,43.4,36.7,30.06,WNW,303,0.0,0.0,77,0.00,,,0.00,0.0,custom,2013-04-16 08:41:00,
2013-04-16 01:46:00,43.2,36.8,30.06,NW,304,0.0,0.0,78,0.00,,,0.00,0.0,custom,2013-04-16 08:46:00,
2013-04-16 01:51:00,43.0,36.6,30.06,NW,304,0.0,0.0,78,0.00,,,0.00,0.0,custom,2013-04-16 08:51:00,
2013-04-16 01:56:00,42.8,36.7,30.07,NW,304,0.0,0.0,79,0.00,,,0.00,0.0,custom,2013-04-16 08:56:00,
2013-04-16 02:01:00,42.6,36.6,30.07,NW,304,0.0,0.0,79,0.00,,,0.00,0.0,custom,2013-04-16 09:01:00,
2013-04-16 02:06:00,42.4,36.4,30.07,NW,304,0.0,0.0,79,0.00,,,0.00,0.0,custom,2013-04-16 09:06:00,
2013-04-16 02:11:00,42.3,36.6,30.07,NW,304,0.0,0.0,80,0.00,,,0.00,0.0,custom,2013-04-16 09:11:00,
2013-04-16 02:16:00,42.1,36.4,30.07,NW,304,0.0,0.0,80,0.00,,,0.00,0.0,custom,2013-04-16 09:16:00,
2013-04-16 02:21:00,42.0,36.3,30.07,NW,304,0.0,0.0,80,0.00,,,0.00,0.0,custom,2013-04-16 09:21:00,
2013-04-16 02:26:00,41.8,36.4,30.07,NNE,25,0.0,0.0,81,0.00,,,0.00,0.0,custom,2013-04-16 09:26:00,
2013-04-16 02:31:00,41.8,36.4,30.07,NNE,25,0.0,0.0,81,0.00,,,0.00,0.0,custom,2013-04-16 09:31:00,
2013-04-16 02:36:00,41.6,36.2,30.07,NNE,25,0.0,0.0,81,0.00,,,0.00,0.0,custom,2013-04-16 09:36:00,
2013-04-16 02:41:00,41.5,36.1,30.07,NNE,25,0.0,0.0,81,0.00,,,0.00,0.0,custom,2013-04-16 09:41:00,
2013-04-16 02:46:00,41.4,36.3,30.07,NNE,26,0.0,0.0,82,0.00,,,0.00,0.0,custom,2013-04-16 09:46:00,
2013-04-16 02:51:00,41.3,36.2,30.07,NNE,25,0.0,0.0,82,0.00,,,0.00,0.0,custom,2013-04-16 09:51:00,
2013-04-16 02:56:00,41.1,36.0,30.07,NNE,25,0.0,0.0,82,0.00,,,0.00,0.0,custom,2013-04-16 09:56:00,
2013-04-16 03:01:00,41.0,35.9,30.07,NNE,25,0.0,0.0,82,0.00,,,0.00,0.0,custom,2013-04-16 10:01:00,
2013-04-16 03:06:00,40.9,36.1,30.07,NNE,25,0.0,0.0,83,0.00,,,0.00,0.0,custom,2013-04-16 10:06:00,
2013-04-16 03:11:00,40.7,35.6,30.07,NNE,25,0.0,0.0,82,0.00,,,0.00,0.0,custom,2013-04-16 10:11:00,
2013-04-16 03:16:00,40.6,35.8,30.07,NNE,25,0.0,0.0,83,0.00,,,0.00,0.0,custom,2013-04-16 10:16:00,
2013-04-16 03:21:00,40.5,35.8,30.08,NNE,25,0.0,0.0,83,0.00,,,0.00,0.0,custom,2013-04-16 10:21:00,
2013-04-16 03:26:00,40.3,35.6,30.08,NNE,25,0.0,0.0,83,0.00,,,0.00,0.0,custom,2013-04-16 10:26:00,
2013-04-16 03:31:00,40.1,35.4,30.08,NNE,24,0.0,0.0,83,0.00,,,0.00,0.0,custom,2013-04-16 10:31:00,
2013-04-16 03:36:00,40.0,35.6,30.08,NNE,25,0.0,0.0,84,0.00,,,0.00,0.0,custom,2013-04-16 10:36:00,
2013-04-16 03:41:00,39.8,35.4,30.08,NNE,24,0.0,0.0,84,0.00,,,0.00,0.0,custom,2013-04-16 10:41:00,
2013-04-16 03:46:00,39.6,35.2,30.08,NNE,25,0.0,0.0,84,0.00,,,0.00,0.0,custom,2013-04-16 10:46:00,
2013-04-16 03:51:00,39.5,35.1,30.08,NNE,24,0.0,0.0,84,0.00,,,0.00,0.0,custom,2013-04-16 10:51:00,
2013-04-16 03:56:00,39.3,34.9,30.08,NNE,25,0.0,0.0,84,0.00,,,0.00,0.0,custom,2013-04-16 10:56:00,
2013-04-16 04:01:00,39.2,35.1,30.08,NNE,26,0.0,0.0,85,0.00,,,0.00,0.0,custom,2013-04-16 11:01:00,
2013-04-16 04:06:00,39.1,35.0,30.09,NNE,26,0.0,0.0,85,0.00,,,0.00,0.0,custom,2013-04-16 11:06:00,
2013-04-16 04:11:00,38.9,34.8,30.09,NNE,25,0.0,0.0,85,0.00,,,0.00,0.0,custom,2013-04-16 11:11:00,
2013-04-16 04:16:00,38.8,34.7,30.09,NNE,25,0.0,0.0,85,0.00,,,0.00,0.0,custom,2013-04-16 11:16:00,
2013-04-16 04:21:00,38.6,34.5,30.09,NNE,25,0.0,0.0,85,0.00,,,0.00,0.0,custom,2013-04-16 11:21:00,
2013-04-16 04:26:00,38.5,34.4,30.09,NNE,25,0.0,0.0,85,0.00,,,0.00,0.0,custom,2013-04-16 11:26:00,
2013-04-16 04:31:00,38.4,34.3,30.10,NNE,25,0.0,0.0,85,0.00,,,0.00,0.0,custom,2013-04-16 11:31:00,
2013-04-16 04:36:00,38.3,34.2,30.10,NNE,25,0.0,0.0,85,0.00,,,0.00,0.0,custom,2013-04-16 11:36:00,
2013-04-16 04:41:00,38.2,34.1,30.10,NNE,25,0.0,1.0,85,0.00,,,0.00,0.0,custom,2013-04-16 11:41:00,
2013-04-16 04:46:00,38.1,34.0,30.10,NNE,25,0.0,0.0,85,0.00,,,0.00,0.0,custom,2013-04-16 11:46:00,
2013-04-16 04:51:00,38.0,33.9,30.11,NNE,25,0.0,0.0,85,0.00,,,0.00,0.0,custom,2013-04-16 11:51:00,
2013-04-16 04:56:00,37.9,33.8,30.11,NNE,24,0.0,0.0,85,0.00,,,0.00,0.0,custom,2013-04-16 11:56:00,
2013-04-16 05:01:00,37.9,33.8,30.11,NNE,25,0.0,0.0,85,0.00,,,0.00,0.0,custom,2013-04-16 12:01:00,
2013-04-16 05:06:00,37.8,34.0,30.11,NNE,25,0.0,0.0,86,0.00,,,0.00,0.0,custom,2013-04-16 12:06:00,
2013-04-16 05:11:00,37.8,34.0,30.11,NNE,24,0.0,0.0,86,0.00,,,0.00,0.0,custom,2013-04-16 12:11:00,
2013-04-16 05:16:00,37.7,33.9,30.11,NNE,25,0.0,0.0,86,0.00,,,0.00,0.0,custom,2013-04-16 12:16:00,
2013-04-16 05:21:00,37.7,33.9,30.11,NNE,25,0.0,0.0,86,0.00,,,0.00,0.0,custom,2013-04-16 12:21:00,
2013-04-16 05:26:00,37.6,33.8,30.11,NNE,25,0.0,0.0,86,0.00,,,0.00,0.0,custom,2013-04-16 12:26:00,
2013-04-16 05:31:00,37.6,33.8,30.12,NNE,25,0.0,0.0,86,0.00,,,0.00,0.0,custom,2013-04-16 12:31:00,
2013-04-16 05:36:00,37.5,33.7,30.12,NNE,25,0.0,0.0,86,0.00,,,0.00,0.0,custom,2013-04-16 12:36:00,
2013-04-16 05:41:00,37.4,33.6,30.12,NNE,25,0.0,0.0,86,0.00,,,0.00,0.0,custom,2013-04-16 12:41:00,
2013-04-16 05:46:00,37.3,33.5,30.12,NNE,25,0.0,0.0,86,0.00,,,0.00,0.0,custom,2013-04-16 12:46:00,
2013-04-16 05:51:00,37.2,33.4,30.12,NNE,25,0.0,0.0,86,0.00,,,0.00,0.0,custom,2013-04-16 12:51:00,
2013-04-16 05:56:00,37.2,33.4,30.12,NNE,24,0.0,0.0,86,0.00,,,0.00,0.0,custom,2013-04-16 12:56:00,
2013-04-16 06:01:00,37.1,33.6,30.12,NNE,25,0.0,0.0,87,0.00,,,0.00,0.0,custom,2013-04-16 13:01:00,
2013-04-16 06:06:00,37.1,33.3,30.12,NNE,25,0.0,0.0,86,0.00,,,0.00,0.0,custom,2013-04-16 13:06:00,
2013-04-16 06:11:00,37.0,33.5,30.12,NNE,25,0.0,0.0,87,0.00,,,0.00,0.0,custom,2013-04-16 13:11:00,
2013-04-16 06:16:00,36.9,33.4,30.12,NNE,25,0.0,0.0,87,0.00,,,0.00,0.0,custom,2013-04-16 13:16:00,
2013-04-16 06:21:00,36.8,33.3,30.13,NNE,25,0.0,0.0,87,0.00,,,0.00,0.0,custom,2013-04-16 13:21:00,
2013-04-16 06:26:00,36.8,33.3,30.13,NNE,26,0.0,0.0,87,0.00,,,0.00,0.0,custom,2013-04-16 13:26:00,
2013-04-16 06:31:00,36.7,33.2,30.13,NNE,25,0.0,0.0,87,0.00,,,0.00,0.0,custom,2013-04-16 13:31:00,
2013-04-16 06:36:00,36.6,33.1,30.13,NNE,25,0.0,0.0,87,0.00,,,0.00,5.0,custom,2013-04-16 13:36:00,
2013-04-16 06:41:00,36.6,33.1,30.13,NNE,25,0.0,0.0,87,0.00,,,0.00,7.0,custom,2013-04-16 13:41:00,
2013-04-16 06:46:00,36.6,33.1,30.14,NNE,25,0.0,0.0,87,0.00,,,0.00,11.0,custom,2013-04-16 13:46:00,
2013-04-16 06:51:00,36.6,33.1,30.14,NNE,25,0.0,0.0,87,0.00,,,0.00,14.0,custom,2013-04-16 13:51:00,
2013-04-16 06:56:00,36.6,33.1,30.14,NNE,25,0.0,0.0,87,0.00,,,0.00,18.0,custom,2013-04-16 13:56:00,
2013-04-16 07:01:00,36.7,33.2,30.14,NNE,25,0.0,0.0,87,0.00,,,0.00,21.0,custom,2013-04-16 14:01:00,
2013-04-16 07:06:00,36.8,33.3,30.14,NNE,25,0.0,0.0,87,0.00,,,0.00,26.0,custom,2013-04-16 14:06:00,
2013-04-16 07:11:00,37.0,33.8,30.15,NNE,25,0.0,0.0,88,0.00,,,0.00,30.0,custom,2013-04-16 14:11:00,
2013-04-16 07:16:00,37.1,33.9,30.15,NNE,25,0.0,0.0,88,0.00,,,0.00,60.0,custom,2013-04-16 14:16:00,
2013-04-16 07:26:00,38.7,35.2,30.15,NNE,25,0.0,0.0,87,0.00,,,0.00,130.0,custom,2013-04-16 14:26:00,
2013-04-16 07:31:00,39.9,36.1,30.15,NNE,25,0.0,0.0,86,0.00,,,0.00,149.0,custom,2013-04-16 14:31:00,
2013-04-16 07:36:00,41.5,37.9,30.16,NNE,25,0.0,0.0,87,0.00,,,0.00,165.0,custom,2013-04-16 14:36:00,
2013-04-16 07:41:00,43.0,39.1,30.16,NNE,25,0.0,0.0,86,0.00,,,0.00,185.0,custom,2013-04-16 14:41:00,
2013-04-16 07:51:00,46.9,39.4,30.16,NNE,25,0.0,0.0,75,0.00,,,0.00,227.0,custom,2013-04-16 14:51:00,
2013-04-16 07:56:00,48.6,39.6,30.16,NNE,25,0.0,0.0,71,0.00,,,0.00,251.0,custom,2013-04-16 14:56:00,
2013-04-16 08:01:00,49.7,38.8,30.16,NNE,25,0.0,0.0,66,0.00,,,0.00,272.0,custom,2013-04-16 15:01:00,
2013-04-16 08:06:00,50.6,38.9,30.16,NNE,25,0.0,0.0,64,0.00,,,0.00,292.0,custom,2013-04-16 15:06:00,
2013-04-16 08:11:00,51.6,40.6,30.16,NNE,24,0.0,0.0,66,0.00,,,0.00,308.0,custom,2013-04-16 15:11:00,
2013-04-16 08:16:00,52.9,40.2,30.16,NNE,25,0.0,0.0,62,0.00,,,0.00,329.0,custom,2013-04-16 15:16:00,
2013-04-16 08:21:00,54.0,39.1,30.16,NNE,25,0.0,0.0,57,0.00,,,0.00,346.0,custom,2013-04-16 15:21:00,
2013-04-16 08:31:00,54.7,38.9,30.16,NNE,25,0.0,0.0,55,0.00,,,0.00,385.0,custom,2013-04-16 15:31:00,
2013-04-16 08:36:00,55.2,38.8,30.16,NNE,26,0.0,0.0,54,0.00,,,0.00,403.0,custom,2013-04-16 15:36:00,
2013-04-16 08:41:00,55.7,38.8,30.16,NNE,25,0.0,0.0,53,0.00,,,0.00,418.0,custom,2013-04-16 15:41:00,
2013-04-16 08:46:00,56.2,38.8,30.16,NNE,24,0.0,0.0,52,0.00,,,0.00,434.0,custom,2013-04-16 15:46:00,
2013-04-16 08:51:00,56.2,39.3,30.16,NNW,345,0.0,0.0,53,0.00,,,0.00,452.0,custom,2013-04-16 15:51:00,
2013-04-16 08:56:00,56.3,39.4,30.16,NNW,346,0.0,0.0,53,0.00,,,0.00,471.0,custom,2013-04-16 15:56:00,
2013-04-16 09:01:00,56.0,38.6,30.16,NNE,24,1.0,0.0,52,0.00,,,0.00,490.0,custom,2013-04-16 16:01:00,
2013-04-16 09:06:00,55.8,38.9,30.16,NNE,28,1.0,0.0,53,0.00,,,0.00,508.0,custom,2013-04-16 16:06:00,
2013-04-16 09:11:00,55.9,38.5,30.16,North,9,1.0,2.0,52,0.00,,,0.00,526.0,custom,2013-04-16 16:11:00,
2013-04-16 09:16:00,55.9,38.5,30.16,NNW,332,1.0,0.0,52,0.00,,,0.00,538.0,custom,2013-04-16 16:16:00,
2013-04-16 09:21:00,56.3,39.4,30.16,NNE,21,1.0,0.0,53,0.00,,,0.00,559.0,custom,2013-04-16 16:21:00,
2013-04-16 09:26:00,56.6,38.7,30.16,NNW,338,1.0,0.0,51,0.00,,,0.00,575.0,custom,2013-04-16 16:26:00,
2013-04-16 09:31:00,56.8,38.9,30.16,North,11,1.0,1.0,51,0.00,,,0.00,589.0,custom,2013-04-16 16:31:00,
2013-04-16 09:36:00,56.9,39.0,30.16,NNE,30,1.0,4.0,51,0.00,,,0.00,605.0,custom,2013-04-16 16:36:00,
2013-04-16 09:41:00,57.3,38.8,30.16,NW,324,1.0,1.0,50,0.00,,,0.00,621.0,custom,2013-04-16 16:41:00,
2013-04-16 09:46:00,57.8,37.7,30.16,North,360,1.0,1.0,47,0.00,,,0.00,636.0,custom,2013-04-16 16:46:00,
2013-04-16 09:51:00,58.1,37.4,30.16,North,10,1.0,0.0,46,0.00,,,0.00,650.0,custom,2013-04-16 16:51:00,
2013-04-16 09:56:00,58.3,37.6,30.16,NNE,24,2.0,2.0,46,0.00,,,0.00,666.0,custom,2013-04-16 16:56:00,
2013-04-16 10:01:00,58.5,36.7,30.16,WNW,286,1.0,1.0,44,0.00,,,0.00,682.0,custom,2013-04-16 17:01:00,
2013-04-16 10:06:00,59.0,37.7,30.16,NNE,13,1.0,3.0,45,0.00,,,0.00,696.0,custom,2013-04-16 17:06:00,
2013-04-16 10:11:00,59.0,35.9,30.16,NW,321,1.0,1.0,42,0.00,,,0.00,712.0,custom,2013-04-16 17:11:00,
2013-04-16 10:16:00,59.0,35.3,30.16,NNW,346,2.0,2.0,41,0.00,,,0.00,728.0,custom,2013-04-16 17:16:00,
2013-04-16 10:21:00,59.4,36.9,30.16,NW,319,1.0,0.0,43,0.00,,,0.00,740.0,custom,2013-04-16 17:21:00,
2013-04-16 10:26:00,59.8,36.1,30.16,NW,320,1.0,0.0,41,0.00,,,0.00,751.0,custom,2013-04-16 17:26:00,
2013-04-16 10:31:00,59.8,36.7,30.16,North,355,1.0,1.0,42,0.00,,,0.00,768.0,custom,2013-04-16 17:31:00,
2013-04-16 10:36:00,60.2,35.8,30.16,NNE,17,1.0,3.0,40,0.00,,,0.00,779.0,custom,2013-04-16 17:36:00,
2013-04-16 10:41:00,60.4,35.3,30.16,NNW,340,1.0,0.0,39,0.00,,,0.00,793.0,custom,2013-04-16 17:41:00,
2013-04-16 10:46:00,60.5,35.4,30.16,NNE,19,2.0,3.0,39,0.00,,,0.00,805.0,custom,2013-04-16 17:46:00,
2013-04-16 10:51:00,60.2,35.2,30.16,NNE,28,2.0,2.0,39,0.00,,,0.00,810.0,custom,2013-04-16 17:51:00,
2013-04-16 10:56:00,60.2,35.2,30.16,NNE,22,2.0,5.0,39,0.00,,,0.00,824.0,custom,2013-04-16 17:56:00,
2013-04-16 11:01:00,60.3,34.6,30.16,NE,40,2.0,2.0,38,0.00,,,0.00,833.0,custom,2013-04-16 18:01:00,
2013-04-16 11:06:00,60.2,34.5,30.16,WNW,291,2.0,4.0,38,0.00,,,0.00,742.0,custom,2013-04-16 18:06:00,
2013-04-16 11:11:00,60.3,35.2,30.16,NNW,341,2.0,3.0,39,0.00,,,0.00,67.0,custom,2013-04-16 18:11:00,
2013-04-16 11:16:00,60.7,35.6,30.16,North,355,1.0,0.0,39,0.00,,,0.00,65.0,custom,2013-04-16 18:16:00,
2013-04-16 11:21:00,61.4,35.6,30.16,WNW,300,1.0,1.0,38,0.00,,,0.00,72.0,custom,2013-04-16 18:21:00,
2013-04-16 11:26:00,61.4,34.9,30.16,NNW,348,2.0,2.0,37,0.00,,,0.00,875.0,custom,2013-04-16 18:26:00,
2013-04-16 11:31:00,61.3,35.5,30.16,NNE,32,2.0,0.0,38,0.00,,,0.00,882.0,custom,2013-04-16 18:31:00,
2013-04-16 11:36:00,61.4,35.6,30.16,WNW,288,2.0,0.0,38,0.00,,,0.00,888.0,custom,2013-04-16 18:36:00,
2013-04-16 11:41:00,61.9,36.7,30.16,NNW,340,2.0,2.0,39,0.00,,,0.00,902.0,custom,2013-04-16 18:41:00,
2013-04-16 11:46:00,62.1,36.2,30.16,North,11,2.0,2.0,38,0.00,,,0.00,895.0,custom,2013-04-16 18:46:00,
2013-04-16 11:51:00,62.2,35.6,30.16,West,279,2.0,0.0,37,0.00,,,0.00,782.0,custom,2013-04-16 18:51:00,
2013-04-16 11:56:00,62.1,35.5,30.16,NNW,342,2.0,2.0,37,0.00,,,0.00,67.0,custom,2013-04-16 18:56:00,
2013-04-16 12:01:00,62.2,35.6,30.16,NNE,14,2.0,2.0,37,0.00,,,0.00,65.0,custom,2013-04-16 19:01:00,
2013-04-16 12:06:00,62.4,36.5,30.16,North,360,2.0,0.0,38,0.00,,,0.00,65.0,custom,2013-04-16 19:06:00,
2013-04-16 12:11:00,62.5,35.9,30.16,WNW,298,2.0,0.0,37,0.00,,,0.00,116.0,custom,2013-04-16 19:11:00,
2013-04-16 12:16:00,62.8,36.1,30.15,WNW,303,1.0,0.0,37,0.00,,,0.00,932.0,custom,2013-04-16 19:16:00,
2013-04-16 12:21:00,63.5,35.4,30.15,East,94,0.0,0.0,35,0.00,,,0.00,933.0,custom,2013-04-16 19:21:00,
2013-04-16 12:26:00,63.6,36.2,30.15,NNW,335,1.0,0.0,36,0.00,,,0.00,944.0,custom,2013-04-16 19:26:00,
2013-04-16 12:31:00,64.0,35.1,30.15,WNW,294,2.0,0.0,34,0.00,,,0.00,947.0,custom,2013-04-16 19:31:00,
2013-04-16 12:36:00,64.1,36.6,30.14,WNW,284,1.0,3.0,36,0.00,,,0.00,949.0,custom,2013-04-16 19:36:00,
2013-04-16 12:41:00,64.3,36.1,30.14,South,176,1.0,2.0,35,0.00,,,0.00,951.0,custom,2013-04-16 19:41:00,
2013-04-16 12:46:00,64.1,35.2,30.14,NE,38,1.0,0.0,34,0.00,,,0.00,951.0,custom,2013-04-16 19:46:00,
2013-04-16 12:51:00,64.4,35.4,30.14,NNE,28,1.0,1.0,34,0.00,,,0.00,949.0,custom,2013-04-16 19:51:00,
2013-04-16 13:01:00,64.9,35.9,30.14,North,355,2.0,3.0,34,0.00,,,0.00,954.0,custom,2013-04-16 20:01:00,
2013-04-16 13:06:00,65.0,35.2,30.14,NNW,347,2.0,2.0,33,0.00,,,0.00,953.0,custom,2013-04-16 20:06:00,
2013-04-16 13:11:00,65.0,34.4,30.14,NNW,346,2.0,3.0,32,0.00,,,0.00,954.0,custom,2013-04-16 20:11:00,
2013-04-16 13:16:00,65.0,34.4,30.14,WNW,292,2.0,2.0,32,0.00,,,0.00,949.0,custom,2013-04-16 20:16:00,
2013-04-16 13:21:00,65.2,33.8,30.13,West,281,1.0,2.0,31,0.00,,,0.00,949.0,custom,2013-04-16 20:21:00,
2013-04-16 13:26:00,65.4,34.8,30.14,NNE,13,2.0,6.0,32,0.00,,,0.00,944.0,custom,2013-04-16 20:26:00,
2013-04-16 13:31:00,65.6,34.1,30.14,NNW,332,2.0,4.0,31,0.00,,,0.00,944.0,custom,2013-04-16 20:31:00,
2013-04-16 13:36:00,65.8,34.3,30.13,East,90,2.0,2.0,31,0.00,,,0.00,940.0,custom,2013-04-16 20:36:00,
2013-04-16 13:41:00,66.3,33.9,30.13,ENE,69,2.0,0.0,30,0.00,,,0.00,935.0,custom,2013-04-16 20:41:00,
2013-04-16 13:46:00,66.2,33.8,30.13,NW,313,3.0,3.0,30,0.00,,,0.00,932.0,custom,2013-04-16 20:46:00,
2013-04-16 13:51:00,66.2,34.7,30.13,North,351,3.0,6.0,31,0.00,,,0.00,930.0,custom,2013-04-16 20:51:00,
2013-04-16 13:56:00,66.3,33.9,30.13,NE,44,2.0,0.0,30,0.00,,,0.00,925.0,custom,2013-04-16 20:56:00,
2013-04-16 14:01:00,66.5,34.1,30.13,NE,41,2.0,3.0,30,0.00,,,0.00,919.0,custom,2013-04-16 21:01:00,
2013-04-16 14:06:00,66.6,34.2,30.12,ENE,57,3.0,3.0,30,0.00,,,0.00,912.0,custom,2013-04-16 21:06:00,
2013-04-16 14:16:00,66.9,34.5,30.12,NW,306,2.0,6.0,30,0.00,,,0.00,898.0,custom,2013-04-16 21:16:00,
2013-04-16 14:21:00,66.7,34.3,30.12,NNE,21,3.0,3.0,30,0.00,,,0.00,893.0,custom,2013-04-16 21:21:00,
2013-04-16 14:31:00,67.4,34.0,30.12,WNW,290,2.0,3.0,29,0.00,,,0.00,877.0,custom,2013-04-16 21:31:00,
2013-04-16 14:41:00,67.9,33.6,30.12,NNE,16,2.0,3.0,28,0.00,,,0.00,860.0,custom,2013-04-16 21:41:00,
2013-04-16 14:46:00,67.6,33.3,30.12,North,11,3.0,6.0,28,0.00,,,0.00,849.0,custom,2013-04-16 21:46:00,
2013-04-16 14:51:00,67.4,34.0,30.12,WNW,292,2.0,3.0,29,0.00,,,0.00,840.0,custom,2013-04-16 21:51:00,
2013-04-16 14:56:00,67.4,34.9,30.11,NW,321,2.0,2.0,30,0.00,,,0.00,831.0,custom,2013-04-16 21:56:00,
2013-04-16 15:01:00,67.5,35.0,30.11,North,360,2.0,2.0,30,0.00,,,0.00,824.0,custom,2013-04-16 22:01:00,
2013-04-16 15:06:00,67.5,35.0,30.11,NNW,340,2.0,4.0,30,0.00,,,0.00,819.0,custom,2013-04-16 22:06:00,
2013-04-16 15:11:00,67.7,36.0,30.11,NNW,340,2.0,0.0,31,0.00,,,0.00,246.0,custom,2013-04-16 22:11:00,
2013-04-16 15:16:00,67.8,33.5,30.11,SE,142,2.0,2.0,28,0.00,,,0.00,169.0,custom,2013-04-16 22:16:00,
2013-04-16 15:21:00,67.6,33.3,30.11,NNE,14,2.0,2.0,28,0.00,,,0.00,58.0,custom,2013-04-16 22:21:00,
2013-04-16 15:26:00,67.7,32.5,30.10,North,5,2.0,7.0,27,0.00,,,0.00,51.0,custom,2013-04-16 22:26:00,
2013-04-16 15:31:00,67.5,31.4,30.10,WNW,292,3.0,3.0,26,0.00,,,0.00,47.0,custom,2013-04-16 22:31:00,
2013-04-16 15:36:00,67.3,31.2,30.10,North,360,3.0,3.0,26,0.00,,,0.00,47.0,custom,2013-04-16 22:36:00,
2013-04-16 15:41:00,67.0,31.0,30.10,NW,321,3.0,3.0,26,0.00,,,0.00,47.0,custom,2013-04-16 22:41:00,
2013-04-16 15:46:00,66.9,30.9,30.10,NNE,17,2.0,4.0,26,0.00,,,0.00,49.0,custom,2013-04-16 22:46:00,
2013-04-16 15:51:00,67.0,31.0,30.10,NNW,331,2.0,0.0,26,0.00,,,0.00,49.0,custom,2013-04-16 22:51:00,
2013-04-16 15:56:00,67.1,32.9,30.10,West,277,3.0,3.0,28,0.00,,,0.00,46.0,custom,2013-04-16 22:56:00,
2013-04-16 16:01:00,67.0,34.5,30.10,SE,137,2.0,0.0,30,0.00,,,0.00,46.0,custom,2013-04-16 23:01:00,
2013-04-16 16:06:00,67.2,35.5,30.10,NNE,13,1.0,5.0,31,0.00,,,0.00,44.0,custom,2013-04-16 23:06:00,
2013-04-16 16:11:00,67.2,33.0,30.10,North,360,1.0,2.0,28,0.00,,,0.00,51.0,custom,2013-04-16 23:11:00,
2013-04-16 16:16:00,67.1,34.6,30.10,North,355,1.0,0.0,30,0.00,,,0.00,46.0,custom,2013-04-16 23:16:00,
2013-04-16 16:21:00,67.1,33.8,30.10,WNW,287,1.0,2.0,29,0.00,,,0.00,42.0,custom,2013-04-16 23:21:00,
2013-04-16 16:26:00,67.0,34.5,30.10,NW,325,1.0,2.0,30,0.00,,,0.00,46.0,custom,2013-04-16 23:26:00,
2013-04-16 16:31:00,67.0,35.4,30.10,SSW,198,1.0,0.0,31,0.00,,,0.00,58.0,custom,2013-04-16 23:31:00,
2013-04-16 16:41:00,67.1,34.6,30.09,WSW,238,1.0,0.0,30,0.00,,,0.00,60.0,custom,2013-04-16 23:41:00,
2013-04-16 16:51:00,66.8,35.2,30.10,NNE,26,1.0,7.0,31,0.00,,,0.00,54.0,custom,2013-04-16 23:51:00,
2013-04-16 17:01:00,66.2,34.7,30.10,WNW,301,1.0,0.0,31,0.00,,,0.00,40.0,custom,2013-04-17 00:01:00,
2013-04-16 17:06:00,66.1,34.6,30.10,SSW,192,1.0,0.0,31,0.00,,,0.00,39.0,custom,2013-04-17 00:06:00,
2013-04-16 17:11:00,66.1,34.6,30.10,West,275,0.0,0.0,31,0.00,,,0.00,37.0,custom,2013-04-17 00:11:00,
2013-04-16 17:16:00,65.9,34.4,30.10,WNW,284,1.0,2.0,31,0.00,,,0.00,39.0,custom,2013-04-17 00:16:00,
2013-04-16 17:21:00,65.7,35.0,30.10,NE,51,1.0,1.0,32,0.00,,,0.00,37.0,custom,2013-04-17 00:21:00,
2013-04-16 17:26:00,65.6,34.9,30.10,WNW,295,1.0,1.0,32,0.00,,,0.00,49.0,custom,2013-04-17 00:26:00,
2013-04-16 17:31:00,65.3,35.5,30.10,North,349,1.0,0.0,33,0.00,,,0.00,35.0,custom,2013-04-17 00:31:00,
2013-04-16 17:36:00,65.1,35.3,30.10,NW,310,1.0,1.0,33,0.00,,,0.00,33.0,custom,2013-04-17 00:36:00,
2013-04-16 17:41:00,65.0,35.2,30.10,West,267,1.0,1.0,33,0.00,,,0.00,33.0,custom,2013-04-17 00:41:00,
2013-04-16 17:46:00,64.8,34.2,30.10,NW,321,1.0,2.0,32,0.00,,,0.00,32.0,custom,2013-04-17 00:46:00,
2013-04-16 17:51:00,64.4,35.4,30.10,NW,318,2.0,2.0,34,0.00,,,0.00,32.0,custom,2013-04-17 00:51:00,
2013-04-16 17:56:00,64.3,35.3,30.10,WNW,284,1.0,1.0,34,0.00,,,0.00,30.0,custom,2013-04-17 00:56:00,
2013-04-16 18:01:00,64.1,35.2,30.10,SE,145,1.0,1.0,34,0.00,,,0.00,35.0,custom,2013-04-17 01:01:00,
2013-04-16 18:06:00,63.8,34.9,30.11,WNW,289,1.0,1.0,34,0.00,,,0.00,32.0,custom,2013-04-17 01:06:00,
2013-04-16 18:11:00,63.5,34.6,30.11,NW,322,1.0,1.0,34,0.00,,,0.00,49.0,custom,2013-04-17 01:11:00,
2013-04-16 18:16:00,63.1,35.0,30.11,North,355,1.0,0.0,35,0.00,,,0.00,28.0,custom,2013-04-17 01:16:00,
2013-04-16 18:21:00,62.9,34.1,30.11,WSW,245,1.0,0.0,34,0.00,,,0.00,26.0,custom,2013-04-17 01:21:00,
2013-04-16 18:26:00,62.5,33.8,30.11,NW,322,1.0,0.0,34,0.00,,,0.00,26.0,custom,2013-04-17 01:26:00,
2013-04-16 18:31:00,62.3,34.3,30.12,North,5,1.0,0.0,35,0.00,,,0.00,26.0,custom,2013-04-17 01:31:00,
2013-04-16 18:36:00,62.2,34.2,30.11,West,263,1.0,4.0,35,0.00,,,0.00,76.0,custom,2013-04-17 01:36:00,
2013-04-16 18:41:00,62.0,34.0,30.11,NNE,18,1.0,0.0,35,0.00,,,0.00,26.0,custom,2013-04-17 01:41:00,
2013-04-16 18:46:00,61.7,33.8,30.12,NW,317,1.0,3.0,35,0.00,,,0.00,44.0,custom,2013-04-17 01:46:00,
2013-04-16 18:51:00,61.5,34.3,30.12,NNW,332,1.0,0.0,36,0.00,,,0.00,21.0,custom,2013-04-17 01:51:00,
2013-04-16 18:56:00,61.3,34.8,30.12,WNW,297,1.0,0.0,37,0.00,,,0.00,25.0,custom,2013-04-17 01:56:00,
2013-04-16 19:01:00,61.1,33.9,30.11,NNE,33,0.0,2.0,36,0.00,,,0.00,19.0,custom,2013-04-17 02:01:00,
2013-04-16 19:06:00,60.9,34.5,30.11,WNW,288,1.0,0.0,37,0.00,,,0.00,18.0,custom,2013-04-17 02:06:00,
2013-04-16 19:11:00,60.6,34.2,30.11,NNE,19,0.0,0.0,37,0.00,,,0.00,16.0,custom,2013-04-17 02:11:00,
2013-04-16 19:16:00,60.4,34.7,30.12,North,355,0.0,0.0,38,0.00,,,0.00,14.0,custom,2013-04-17 02:16:00,
2013-04-16 19:21:00,60.1,34.4,30.12,North,11,0.0,1.0,38,0.00,,,0.00,12.0,custom,2013-04-17 02:21:00,
2013-04-16 19:26:00,59.9,34.9,30.12,NW,324,1.0,0.0,39,0.00,,,0.00,11.0,custom,2013-04-17 02:26:00,
2013-04-16 19:31:00,59.6,34.6,30.12,NNE,12,0.0,0.0,39,0.00,,,0.00,9.0,custom,2013-04-17 02:31:00,
2013-04-16 19:36:00,59.2,34.9,30.12,North,355,0.0,0.0,40,0.00,,,0.00,7.0,custom,2013-04-17 02:36:00,
2013-04-16 19:41:00,59.0,34.7,30.12,WNW,288,0.0,0.0,40,0.00,,,0.00,5.0,custom,2013-04-17 02:41:00,
2013-04-16 19:46:00,58.7,35.1,30.12,WNW,298,0.0,0.0,41,0.00,,,0.00,0.0,custom,2013-04-17 02:46:00,
2013-04-16 19:51:00,58.3,35.3,30.13,WNW,290,0.0,0.0,42,0.00,,,0.00,0.0,custom,2013-04-17 02:51:00,
2013-04-16 19:56:00,57.9,35.5,30.13,NW,309,0.0,0.0,43,0.00,,,0.00,0.0,custom,2013-04-17 02:56:00,
2013-04-16 20:01:00,57.5,35.2,30.13,NNE,33,0.0,0.0,43,0.00,,,0.00,0.0,custom,2013-04-17 03:01:00,
2013-04-16 20:06:00,57.2,35.5,30.14,WNW,287,0.0,1.0,44,0.00,,,0.00,0.0,custom,2013-04-17 03:06:00,
2013-04-16 20:11:00,56.9,35.2,30.14,NNE,18,0.0,0.0,44,0.00,,,0.00,0.0,custom,2013-04-17 03:11:00,
2013-04-16 20:16:00,56.6,35.5,30.14,NNE,18,0.0,0.0,45,0.00,,,0.00,0.0,custom,2013-04-17 03:16:00,
2013-04-16 20:21:00,56.3,35.2,30.15,West,264,0.0,0.0,45,0.00,,,0.00,0.0,custom,2013-04-17 03:21:00,
2013-04-16 20:26:00,56.0,35.5,30.15,WNW,294,0.0,0.0,46,0.00,,,0.00,0.0,custom,2013-04-17 03:26:00,
2013-04-16 20:31:00,55.7,35.8,30.15,NNW,329,0.0,0.0,47,0.00,,,0.00,0.0,custom,2013-04-17 03:31:00,
2013-04-16 20:36:00,55.4,36.6,30.15,NNW,329,0.0,0.0,49,0.00,,,0.00,0.0,custom,2013-04-17 03:36:00,
2013-04-16 20:41:00,55.0,35.7,30.15,NNW,329,0.0,0.0,48,0.00,,,0.00,0.0,custom,2013-04-17 03:41:00,
2013-04-16 20:46:00,54.7,35.9,30.16,NNW,331,0.0,0.0,49,0.00,,,0.00,0.0,custom,2013-04-17 03:46:00,
2013-04-16 20:51:00,54.4,35.6,30.16,NNW,330,0.0,0.0,49,0.00,,,0.00,0.0,custom,2013-04-17 03:51:00,
2013-04-16 20:56:00,54.3,36.6,30.16,NNW,330,0.0,0.0,51,0.00,,,0.00,0.0,custom,2013-04-17 03:56:00,
2013-04-16 21:01:00,54.2,37.0,30.16,NNW,331,0.0,0.0,52,0.00,,,0.00,0.0,custom,2013-04-17 04:01:00,
2013-04-16 21:06:00,54.0,37.3,30.17,NNW,331,0.0,0.0,53,0.00,,,0.00,0.0,custom,2013-04-17 04:06:00,
2013-04-16 21:11:00,53.8,37.1,30.17,NNW,331,0.0,0.0,53,0.00,,,0.00,0.0,custom,2013-04-17 04:11:00,
2013-04-16 21:16:00,53.6,37.8,30.18,NNW,330,0.0,0.0,55,0.00,,,0.00,0.0,custom,2013-04-17 04:16:00,
2013-04-16 21:21:00,53.3,38.0,30.18,NNW,331,0.0,0.0,56,0.00,,,0.00,0.0,custom,2013-04-17 04:21:00,
2013-04-16 21:26:00,53.1,37.8,30.18,NNW,331,0.0,0.0,56,0.00,,,0.00,0.0,custom,2013-04-17 04:26:00,
2013-04-16 21:31:00,52.8,38.0,30.18,WNW,291,0.0,0.0,57,0.00,,,0.00,0.0,custom,2013-04-17 04:31:00,
2013-04-16 21:36:00,52.7,38.3,30.18,WNW,291,0.0,0.0,58,0.00,,,0.00,0.0,custom,2013-04-17 04:36:00,
2013-04-16 21:41:00,52.5,38.6,30.18,WNW,292,0.0,0.0,59,0.00,,,0.00,0.0,custom,2013-04-17 04:41:00,
2013-04-16 21:46:00,52.4,38.9,30.18,WNW,291,0.0,0.0,60,0.00,,,0.00,0.0,custom,2013-04-17 04:46:00,
2013-04-16 21:56:00,52.1,38.2,30.19,WNW,292,0.0,0.0,59,0.00,,,0.00,0.0,custom,2013-04-17 04:56:00,
2013-04-16 22:01:00,51.9,38.0,30.19,WNW,292,0.0,0.0,59,0.00,,,0.00,0.0,custom,2013-04-17 05:01:00,
2013-04-16 22:06:00,51.7,37.8,30.19,WNW,292,0.0,0.0,59,0.00,,,0.00,0.0,custom,2013-04-17 05:06:00,
2013-04-16 22:11:00,51.5,37.7,30.19,WNW,291,0.0,0.0,59,0.00,,,0.00,0.0,custom,2013-04-17 05:11:00,
2013-04-16 22:16:00,51.3,37.9,30.19,WNW,293,0.0,0.0,60,0.00,,,0.00,0.0,custom,2013-04-17 05:16:00,
2013-04-16 22:21:00,51.0,37.6,30.20,WNW,292,0.0,0.0,60,0.00,,,0.00,0.0,custom,2013-04-17 05:21:00,
2013-04-16 22:26:00,50.8,37.4,30.20,WNW,291,0.0,0.0,60,0.00,,,0.00,0.0,custom,2013-04-17 05:26:00,
2013-04-16 22:31:00,50.6,37.7,30.20,WNW,292,0.0,0.0,61,0.00,,,0.00,0.0,custom,2013-04-17 05:31:00,
2013-04-16 22:36:00,50.4,37.5,30.20,WNW,292,0.0,0.0,61,0.00,,,0.00,0.0,custom,2013-04-17 05:36:00,
2013-04-16 22:41:00,50.3,37.4,30.20,WNW,292,0.0,0.0,61,0.00,,,0.00,0.0,custom,2013-04-17 05:41:00,
2013-04-16 22:46:00,50.0,37.5,30.20,WNW,291,0.0,0.0,62,0.00,,,0.00,0.0,custom,2013-04-17 05:46:00,
2013-04-16 22:51:00,49.7,37.2,30.20,WNW,292,0.0,0.0,62,0.00,,,0.00,0.0,custom,2013-04-17 05:51:00,
2013-04-16 22:56:00,49.6,37.5,30.20,WNW,292,0.0,0.0,63,0.00,,,0.00,0.0,custom,2013-04-17 05:56:00,
2013-04-16 23:06:00,49.7,37.6,30.20,WNW,292,0.0,0.0,63,0.00,,,0.00,0.0,custom,2013-04-17 06:06:00,
2013-04-16 23:11:00,49.7,37.6,30.20,WNW,292,0.0,0.0,63,0.00,,,0.00,0.0,custom,2013-04-17 06:11:00,
2013-04-16 23:16:00,49.6,37.1,30.21,WNW,292,0.0,0.0,62,0.00,,,0.00,0.0,custom,2013-04-17 06:16:00,
2013-04-16 23:21:00,49.7,37.6,30.21,WNW,292,0.0,0.0,63,0.00,,,0.00,0.0,custom,2013-04-17 06:21:00,
2013-04-16 23:26:00,49.8,37.7,30.20,WNW,291,0.0,0.0,63,0.00,,,0.00,0.0,custom,2013-04-17 06:26:00,
2013-04-16 23:31:00,49.7,37.6,30.21,WNW,292,0.0,0.0,63,0.00,,,0.00,0.0,custom,2013-04-17 06:31:00,
2013-04-16 23:36:00,49.6,37.1,30.21,WNW,292,0.0,0.0,62,0.00,,,0.00,0.0,custom,2013-04-17 06:36:00,
2013-04-16 23:41:00,49.5,37.0,30.21,WNW,291,0.0,0.0,62,0.00,,,0.00,0.0,custom,2013-04-17 06:41:00,
2013-04-16 23:46:00,49.3,37.2,30.21,WNW,292,0.0,0.0,63,0.00,,,0.00,0.0,custom,2013-04-17 06:46:00,
2013-04-16 23:51:00,49.2,37.1,30.21,WNW,292,0.0,0.0,63,0.00,,,0.00,0.0,custom,2013-04-17 06:51:00,
2013-04-16 23:56:00,49.1,37.1,30.22,WNW,292,0.0,0.0,63,0.00,,,0.00,0.0,custom,2013-04-17 06:56:00,